Location: Winnipeg
(49.8830°N, 97.1670°W)
Time: 23:31:45
(UTC-06:00)

Envisat - Visible Passes

Search period start: 01 December 2022 00:00
Search period end: 11 December 2022 00:00
Orbit: 763 x 765 km, 98.2° (Epoch: 01 December)

Date Brightness Start Highest point End Pass type
(mag) Time Alt. Az. Time Alt. Az. Time Alt. Az.
01 Dec 4.4 04:36:25 10° NNE 04:39:08 31° NNE 04:39:08 31° NNE visible
01 Dec 4.2 06:16:09 10° N 06:19:17 22° NW 06:19:17 22° NW visible
02 Dec 5.3 03:59:48 10° NNE 04:01:30 19° NE 04:01:30 19° NE visible
02 Dec 3.9 05:38:38 10° N 05:41:41 32° NNW 05:41:41 32° NNW visible
03 Dec 6.0 03:23:54 10° NE 03:23:54 10° NE 03:23:54 10° NE visible
03 Dec 4.2 05:01:26 10° NNE 05:04:05 32° N 05:04:05 32° N visible
03 Dec 4.6 06:41:53 10° NNW 06:44:15 15° NW 06:44:15 15° NW visible
04 Dec 4.9 04:24:32 10° NNE 04:26:29 23° NNE 04:26:29 23° NNE visible
04 Dec 4.2 06:03:59 10° N 06:06:39 23° NNW 06:06:39 23° NNW visible
04 Dec 6.0 17:26:02 10° WSW 17:28:14 13° W 17:30:28 10° WNW visible
05 Dec 5.7 03:48:04 10° NE 03:48:54 14° NE 03:48:54 14° NE visible
05 Dec 4.2 05:26:35 10° N 05:29:04 28° N 05:29:04 28° N visible
05 Dec 4.9 07:08:50 10° NW 07:09:15 10° NW 07:09:15 10° NW visible
06 Dec 4.7 04:49:28 10° NNE 04:51:29 24° NNE 04:51:29 24° NNE visible
06 Dec 4.5 06:29:33 10° NNW 06:31:40 17° NW 06:31:40 17° NW visible
07 Dec 5.4 04:12:41 10° NNE 04:13:55 17° NE 04:13:55 17° NE visible
07 Dec 4.4 05:51:52 10° N 05:54:05 23° NNW 05:54:05 23° NNW visible
07 Dec 5.8 17:13:01 10° SW 17:16:07 16° W 17:19:13 10° NW visible
08 Dec 4.6 05:14:33 10° N 05:16:31 24° N 05:16:31 24° N visible
08 Dec 4.8 06:55:37 10° NNW 06:56:42 12° NW 06:56:42 12° NW visible
09 Dec 5.1 04:37:32 10° NNE 04:38:58 19° NNE 04:38:58 19° NNE visible
09 Dec 4.6 06:17:19 10° N 06:19:08 18° NNW 06:19:08 18° NNW visible
10 Dec 5.7 04:00:53 10° NNE 04:01:25 13° NE 04:01:25 13° NE visible
10 Dec 4.6 05:39:46 10° N 05:41:35 21° N 05:41:35 21° N visible
10 Dec 5.7 17:00:19 10° SW 17:04:00 20° W 17:07:43 10° NW visible
